Time,TemperatureF,DewpointF,PressureIn,WindDirection,WindDirectionDegrees,WindSpeedMPH,WindSpeedGustMPH,Humidity,HourlyPrecipIn,Conditions,Clouds,dailyrainin,SoftwareType,DateUTC
2013-07-05 00:05:00,73.6,73.0,30.15,NE,34,4.0,7.0,98,0.04,,,0.01,weatherlink.com 1.10,2013-07-05 04:05:00,
2013-07-05 00:20:00,73.5,73.0,30.15,NE,36,4.0,6.0,98,0.04,,,0.02,weatherlink.com 1.10,2013-07-05 04:20:00,
2013-07-05 00:35:00,73.6,73.0,30.15,NE,50,1.0,4.0,97,0.03,,,0.02,weatherlink.com 1.10,2013-07-05 04:35:00,
2013-07-05 00:51:00,73.0,72.0,30.14,NNE,32,2.0,5.0,97,0.03,,,0.03,weatherlink.com 1.10,2013-07-05 04:51:00,
2013-07-05 01:06:00,73.4,73.0,30.14,NE,46,4.0,5.0,98,0.03,,,0.04,weatherlink.com 1.10,2013-07-05 05:06:00,
2013-07-05 01:21:00,73.7,73.0,30.13,ENE,62,4.0,6.0,99,0.03,,,0.05,weatherlink.com 1.10,2013-07-05 05:21:00,
2013-07-05 01:36:00,73.7,73.0,30.12,NE,46,3.0,5.0,99,0.03,,,0.06,weatherlink.com 1.10,2013-07-05 05:36:00,
2013-07-05 01:51:00,73.8,74.0,30.12,NE,46,3.0,4.0,99,0.04,,,0.08,weatherlink.com 1.10,2013-07-05 05:51:00,
2013-07-05 02:06:00,74.2,74.0,30.11,ENE,65,2.0,4.0,99,0.05,,,0.09,weatherlink.com 1.10,2013-07-05 06:06:00,
2013-07-05 02:21:00,73.1,73.0,30.11,ENE,65,2.0,2.0,99,0.04,,,0.10,weatherlink.com 1.10,2013-07-05 06:21:00,
2013-07-05 02:36:00,73.1,73.0,30.11,ENE,65,3.0,3.0,99,0.05,,,0.11,weatherlink.com 1.10,2013-07-05 06:36:00,
2013-07-05 02:51:00,73.9,74.0,30.11,ESE,111,0.0,4.0,100,0.04,,,0.12,weatherlink.com 1.10,2013-07-05 06:51:00,
2013-07-05 03:06:00,73.7,73.0,30.10,ESE,111,0.0,3.0,99,0.04,,,0.13,weatherlink.com 1.10,2013-07-05 07:06:00,
2013-07-05 03:21:00,74.0,74.0,30.10,ESE,111,1.0,4.0,100,0.04,,,0.14,weatherlink.com 1.10,2013-07-05 07:21:00,
2013-07-05 03:36:00,74.3,74.0,30.09,ESE,111,4.0,5.0,100,0.03,,,0.14,weatherlink.com 1.10,2013-07-05 07:36:00,
2013-07-05 03:51:00,74.3,74.0,30.09,ESE,111,2.0,4.0,100,0.03,,,0.15,weatherlink.com 1.10,2013-07-05 07:51:00,
2013-07-05 04:06:00,74.1,74.0,30.09,ESE,111,3.0,4.0,100,0.03,,,0.16,weatherlink.com 1.10,2013-07-05 08:06:00,
2013-07-05 04:21:00,74.1,74.0,30.08,ESE,111,0.0,4.0,100,0.03,,,0.17,weatherlink.com 1.10,2013-07-05 08:21:00,
2013-07-05 04:36:00,74.4,74.0,30.07,ESE,111,1.0,4.0,100,0.04,,,0.18,weatherlink.com 1.10,2013-07-05 08:36:00,
2013-07-05 04:51:00,74.6,75.0,30.07,ESE,121,0.0,5.0,100,0.04,,,0.19,weatherlink.com 1.10,2013-07-05 08:51:00,
2013-07-05 05:06:00,74.6,75.0,30.08,ESE,121,2.0,3.0,100,0.03,,,0.19,weatherlink.com 1.10,2013-07-05 09:06:00,
2013-07-05 05:21:00,74.8,75.0,30.08,ESE,121,1.0,3.0,100,0.03,,,0.20,weatherlink.com 1.10,2013-07-05 09:21:00,
2013-07-05 05:36:00,74.7,75.0,30.09,ESE,121,1.0,5.0,100,0.03,,,0.21,weatherlink.com 1.10,2013-07-05 09:36:00,
2013-07-05 05:51:00,74.9,75.0,30.09,ESE,123,3.0,6.0,100,0.02,,,0.21,weatherlink.com 1.10,2013-07-05 09:51:00,
2013-07-05 06:06:00,75.1,75.0,30.09,ESE,123,2.0,7.0,100,0.03,,,0.22,weatherlink.com 1.10,2013-07-05 10:06:00,
2013-07-05 06:21:00,75.1,75.0,30.10,SE,126,3.0,4.0,100,0.03,,,0.23,weatherlink.com 1.10,2013-07-05 10:21:00,
2013-07-05 06:36:00,74.8,75.0,30.10,ESE,123,2.0,4.0,100,0.02,,,0.23,weatherlink.com 1.10,2013-07-05 10:36:00,
2013-07-05 07:06:00,75.0,75.0,30.11,ESE,123,1.0,4.0,100,0.02,,,0.24,weatherlink.com 1.10,2013-07-05 11:06:00,
2013-07-05 07:21:00,75.7,76.0,30.11,ESE,119,3.0,4.0,100,0.01,,,0.24,weatherlink.com 1.10,2013-07-05 11:21:00,
2013-07-05 07:36:00,75.8,76.0,30.11,ESE,116,3.0,7.0,100,0.02,,,0.25,weatherlink.com 1.10,2013-07-05 11:36:00,
2013-07-05 08:06:00,76.9,77.0,30.11,SSE,148,7.0,10.0,100,0.01,,,0.25,weatherlink.com 1.10,2013-07-05 12:06:00,
2013-07-05 08:21:00,77.7,77.0,30.11,ESE,121,7.0,9.0,99,0.02,,,0.26,weatherlink.com 1.10,2013-07-05 12:21:00,
2013-07-05 08:36:00,78.1,77.0,30.12,SE,130,6.0,9.0,97,0.01,,,0.26,weatherlink.com 1.10,2013-07-05 12:36:00,
2013-07-05 08:51:00,79.3,78.0,30.12,ESE,119,3.0,9.0,96,0.01,,,0.26,weatherlink.com 1.10,2013-07-05 12:51:00,
2013-07-05 09:06:00,79.8,77.0,30.12,ESE,103,5.0,10.0,92,0.01,,,0.26,weatherlink.com 1.10,2013-07-05 13:06:00,
2013-07-05 09:21:00,80.6,78.0,30.12,SSE,155,6.0,15.0,90,0.01,,,0.27,weatherlink.com 1.10,2013-07-05 13:21:00,
2013-07-05 09:36:00,81.3,78.0,30.12,SE,139,7.0,14.0,88,0.01,,,0.27,weatherlink.com 1.10,2013-07-05 13:36:00,
2013-07-05 09:52:00,82.0,78.0,30.12,ESE,110,16.0,17.0,87,0.01,,,0.27,weatherlink.com 1.10,2013-07-05 13:52:00,
2013-07-05 10:07:00,82.4,78.0,30.13,SE,141,6.0,16.0,87,0.02,,,0.28,weatherlink.com 1.10,2013-07-05 14:07:00,
2013-07-05 10:22:00,82.8,78.0,30.13,SSE,149,7.0,15.0,85,0.01,,,0.28,weatherlink.com 1.10,2013-07-05 14:22:00,
2013-07-05 10:37:00,83.0,78.0,30.13,SSE,150,10.0,12.0,85,0.01,,,0.28,weatherlink.com 1.10,2013-07-05 14:37:00,
2013-07-05 11:07:00,82.4,78.0,30.12,SSE,159,9.0,11.0,85,0.02,,,0.30,weatherlink.com 1.10,2013-07-05 15:07:00,
2013-07-05 11:22:00,83.5,78.0,30.12,SSE,166,4.0,11.0,83,0.02,,,0.30,weatherlink.com 1.10,2013-07-05 15:22:00,
2013-07-05 11:37:00,84.8,78.0,30.12,SSE,155,10.0,18.0,81,0.03,,,0.31,weatherlink.com 1.10,2013-07-05 15:37:00,
2013-07-05 11:52:00,84.7,78.0,30.11,SE,142,16.0,21.0,79,0.03,,,0.32,weatherlink.com 1.10,2013-07-05 15:52:00,
2013-07-05 12:07:00,83.9,78.0,30.11,SSE,154,8.0,13.0,81,0.03,,,0.33,weatherlink.com 1.10,2013-07-05 16:07:00,
2013-07-05 12:22:00,84.5,77.0,30.11,SSE,155,8.0,15.0,78,0.04,,,0.34,weatherlink.com 1.10,2013-07-05 16:22:00,